sat.trackr.live / text

‹ back to catalog

STARLINK-30585

NORAD 58063 · 2023-158N

PAYLOAD ACTIVE UNKNOWN

§ Identity

Operator
Country
US
Launch date
2023-10-13
Launch site
AFETR
Launch vehicle
Mass (kg)
RCS (m²)

Purposes: comms

External: N2YO · Heavens-Above · Gunter

§ Orbital elements

Epoch: 2026-09-19T14:09:23.023584Z

Period
94.27 min
Inclination
43.0023°
Eccentricity
0.0001400
Mean motion
15.27572943 rev/d
Perigee alt
482.1 km
Apogee alt
484.0 km
Semi-major
6,861.2 km
B*
2.9825e-5
RAAN
12.0737°
Arg perigee
265.3937°
Mean anomaly
94.6754°
Rev number
16,322

§ Raw data

STARLINK-305851 58063U 23158N   26262.58984981  .00000558  00000+0  29825-4 0  99982 58063  43.0023  12.0737 0001400 265.3937  94.6754 15.27572943163220

JSON: /api/v1/satellites/58063 · /tle

For live sub-satellite position, see the globe view (requires WebGL).

§ Visibility from observer

Set your observer location to see the next 7 days of passes ≥ 10°. The values pass through the URL so the page stays shareable.

No JS? Fill the form by hand. The geolocation button needs JavaScript.